Thermopolis, WY

10:18 PM MDT on May 28, 2017 (GMT -0600)
Thermopolis

Weather History for KTBX - June, 2013

Change the Weather History Date:

Sunday, June 30, 2013

  Actual Average (KWRL) Record (KWRL)
Temperature  
Mean Temperature 65 °F -  
Max Temperature 77 °F 88 °F 107 °F (1990)
Min Temperature 53 °F 54 °F 39 °F (1968)
Growing Degree Days 15 (Base 50)    
Moisture  
Dew Point 43 °F    
Average Humidity 47    
Maximum Humidity 88    
Minimum Humidity 21    
Precipitation  
Precipitation 0.00 in - - ()
Sea Level Pressure  
Sea Level Pressure 30.44 in    
Wind  
Wind Speed 12 mph (NE)    
Max Wind Speed 30 mph    
Max Gust Speed 36 mph    
Visibility 10 miles    
Events Rain    
Averages and records for this station are not official NWS values.
T = Trace of Precipitation, MM = Missing Value Source: NWS Daily Summary

Daily Weather History Graph

Daily Weather History Graph

Search for Another Location

Airport or City:

Trip Planner

Search our weather history database for the weather conditions in past years. The results will help you decide how hot, cold, wet, or windy it might be!

Date:

Astronomy

Jun. 30, 2013 Rise Set
Actual Time 5:35 AM MDT 8:57 PM MDT
Civil Twilight 4:59 AM MDT 9:33 PM MDT
Nautical Twilight 4:13 AM MDT 10:19 PM MDT
Astronomical Twilight 3:15 AM MDT 11:17 PM MDT
Moon 12:44 AM MDT (6/30) 2:07 PM MDT (6/30)
Length of Visible Light 16h 33m
Length of Day
15h 22m
Last Quarter, 45% of the Moon is Illuminated
Jun 30
Last Quarter
Jul 8
New
Jul 15
First Quarter
Jul 22
Full
Jul 29
Last Quarter

Hourly Weather History & Observations

Time (MDT) Temp. Dew Point Humidity Pressure Visibility Wind Dir Wind Speed Gust Speed Precip Events Conditions
12:15 AM 60.8 °F 44.6 °F 55% 30.46 in 10.0 mi NNW 10.4 mph 21.9 mph N/A   Scattered Clouds
12:35 AM 60.8 °F 44.6 °F 55% 30.45 in 10.0 mi NNW 10.4 mph - N/A   Clear
12:55 AM 59.0 °F 44.6 °F 59% 30.44 in 10.0 mi NW 17.3 mph - N/A   Clear
1:15 AM 57.2 °F 46.4 °F 67% 30.45 in 10.0 mi NW 16.1 mph - N/A   Scattered Clouds
1:35 AM 55.4 °F 46.4 °F 72% 30.45 in 10.0 mi NW 18.4 mph - N/A   Scattered Clouds
1:55 AM 53.6 °F 50.0 °F 88% 30.47 in 10.0 mi NNW 10.4 mph - N/A   Clear
2:15 AM 55.4 °F 48.2 °F 77% 30.46 in 10.0 mi North 6.9 mph - N/A   Clear
2:35 AM 57.2 °F 48.2 °F 72% 30.46 in 10.0 mi Calm Calm - N/A   Clear
2:55 AM 57.2 °F 48.2 °F 72% 30.46 in 10.0 mi NNW 5.8 mph - N/A   Clear
3:15 AM 57.2 °F 48.2 °F 72% 30.45 in 10.0 mi NNE 4.6 mph - N/A   Clear
3:35 AM 57.2 °F 46.4 °F 67% 30.45 in 10.0 mi East 5.8 mph - N/A   Clear
3:55 AM 57.2 °F 46.4 °F 67% 30.44 in 10.0 mi SSE 10.4 mph - N/A   Clear
4:15 AM 57.2 °F 46.4 °F 67% 30.43 in 10.0 mi SSE 8.1 mph - N/A   Clear
4:35 AM 55.4 °F 48.2 °F 77% 30.43 in 10.0 mi SE 8.1 mph - N/A   Clear
4:55 AM 55.4 °F 48.2 °F 77% 30.41 in 10.0 mi SE 16.1 mph - N/A   Clear
5:15 AM 55.4 °F 48.2 °F 77% 30.40 in 10.0 mi SE 15.0 mph - N/A   Clear
5:35 AM 55.4 °F 48.2 °F 77% 30.40 in 10.0 mi SE 12.7 mph - N/A   Clear
5:55 AM 55.4 °F 48.2 °F 77% 30.40 in 10.0 mi SE 15.0 mph - N/A   Clear
6:15 AM 57.2 °F 48.2 °F 72% 30.41 in 10.0 mi SE 15.0 mph - N/A   Clear
6:35 AM 57.2 °F 48.2 °F 72% 30.42 in 10.0 mi SE 6.9 mph - N/A   Clear
6:55 AM 59.0 °F 46.4 °F 63% 30.42 in 10.0 mi SE 11.5 mph - N/A   Clear
7:15 AM 59.0 °F 46.4 °F 63% 30.42 in 10.0 mi SE 12.7 mph - N/A   Clear
7:35 AM 59.0 °F 46.4 °F 63% 30.43 in 10.0 mi SE 13.8 mph - N/A   Clear
7:55 AM 60.8 °F 48.2 °F 63% 30.43 in 10.0 mi SE 11.5 mph - N/A   Clear
8:15 AM 60.8 °F 48.2 °F 63% 30.44 in 10.0 mi ESE 10.4 mph - N/A   Clear
8:35 AM 62.6 °F 46.4 °F 55% 30.44 in 10.0 mi SE 8.1 mph - N/A   Clear
8:55 AM 62.6 °F 46.4 °F 55% 30.44 in 10.0 mi SE 8.1 mph - N/A   Clear
9:15 AM 62.6 °F 46.4 °F 55% 30.44 in 10.0 mi SE 5.8 mph - N/A   Clear
9:35 AM 64.4 °F 46.4 °F 52% 30.44 in 10.0 mi SE 10.4 mph - N/A   Clear
9:55 AM 64.4 °F 44.6 °F 49% 30.44 in 10.0 mi SE 8.1 mph - N/A   Clear
10:15 AM 64.4 °F 44.6 °F 49% 30.44 in 10.0 mi SSE 6.9 mph - N/A   Clear
10:35 AM 66.2 °F 46.4 °F 49% 30.45 in 10.0 mi SE 8.1 mph - N/A   Clear
10:55 AM 68.0 °F 44.6 °F 43% 30.45 in 10.0 mi South 4.6 mph - N/A   Clear
11:15 AM 69.8 °F 44.6 °F 40% 30.45 in 10.0 mi NW 5.8 mph - N/A   Clear
11:35 AM 69.8 °F 42.8 °F 38% 30.45 in 10.0 mi NNW 6.9 mph - N/A   Clear
11:55 AM 71.6 °F 42.8 °F 35% 30.45 in 10.0 mi NW 8.1 mph 18.4 mph N/A   Clear
12:15 PM 71.6 °F 42.8 °F 35% 30.45 in 10.0 mi NNW 12.7 mph 16.1 mph N/A   Clear
12:35 PM 71.6 °F 42.8 °F 35% 30.44 in 10.0 mi WNW 12.7 mph - N/A   Clear
12:55 PM 71.6 °F 41.0 °F 33% 30.44 in 10.0 mi NNW 15.0 mph - N/A   Clear
1:15 PM 73.4 °F 39.2 °F 29% 30.44 in 10.0 mi North 12.7 mph 19.6 mph N/A   Clear
1:35 PM 73.4 °F 35.6 °F 25% 30.44 in 10.0 mi NNW 16.1 mph 19.6 mph N/A   Clear
1:55 PM 73.4 °F 37.4 °F 27% 30.44 in 10.0 mi NW 13.8 mph 21.9 mph N/A   Clear
2:15 PM 73.4 °F 35.6 °F 25% 30.44 in 10.0 mi NNW 17.3 mph 21.9 mph N/A   Clear
2:35 PM 75.2 °F 37.4 °F 25% 30.43 in 10.0 mi NNW 18.4 mph 23.0 mph N/A   Clear
2:55 PM 75.2 °F 35.6 °F 24% 30.43 in 10.0 mi North 19.6 mph 25.3 mph N/A   Clear
3:15 PM 77.0 °F 37.4 °F 24% 30.43 in 10.0 mi NW 16.1 mph 26.5 mph N/A   Clear
3:35 PM 77.0 °F 37.4 °F 24% 30.42 in 10.0 mi NW 17.3 mph 28.8 mph N/A   Clear
3:55 PM 77.0 °F 39.2 °F 26% 30.42 in 10.0 mi NW 18.4 mph 24.2 mph N/A   Clear
4:15 PM 77.0 °F 39.2 °F 26% 30.42 in 10.0 mi NW 18.4 mph 28.8 mph N/A   Clear
4:35 PM 77.0 °F 35.6 °F 22% 30.42 in 10.0 mi NW 23.0 mph 28.8 mph N/A   Clear
4:55 PM 77.0 °F 35.6 °F 22% 30.42 in 10.0 mi NW 23.0 mph 29.9 mph N/A   Clear
5:15 PM 77.0 °F 35.6 °F 22% 30.41 in 10.0 mi NNW 19.6 mph 31.1 mph N/A   Clear
5:35 PM 77.0 °F 33.8 °F 21% 30.40 in 10.0 mi NW 29.9 mph 35.7 mph N/A   Scattered Clouds
5:55 PM 77.0 °F 35.6 °F 22% 30.41 in 10.0 mi NNW 19.6 mph - N/A   Scattered Clouds
6:15 PM 77.0 °F 35.6 °F 22% 30.41 in 10.0 mi NNW 23.0 mph - N/A   Clear
6:35 PM 73.4 °F 35.6 °F 25% 30.41 in 10.0 mi NNW 19.6 mph - N/A   Scattered Clouds
6:55 PM 73.4 °F 37.4 °F 27% 30.41 in 10.0 mi NNW 19.6 mph - N/A   Scattered Clouds
7:15 PM 75.2 °F 39.2 °F 27% 30.42 in 10.0 mi North 15.0 mph - N/A   Clear
7:35 PM 73.4 °F 41.0 °F 31% 30.43 in 10.0 mi NNE 11.5 mph - N/A   Clear
7:55 PM 73.4 °F 41.0 °F 31% 30.44 in 10.0 mi NE 5.8 mph - N/A   Clear
8:15 PM 73.4 °F 41.0 °F 31% 30.44 in 10.0 mi SE 9.2 mph - N/A   Mostly Cloudy
8:35 PM 71.6 °F 41.0 °F 33% 30.44 in 10.0 mi ESE 13.8 mph - N/A   Overcast
8:55 PM 69.8 °F 39.2 °F 33% 30.44 in 10.0 mi ESE 15.0 mph 23.0 mph N/A Rain Light Rain
9:15 PM 69.8 °F 41.0 °F 35% 30.44 in 10.0 mi SE 17.3 mph 21.9 mph N/A   Overcast
9:35 PM 64.4 °F 46.4 °F 52% 30.43 in 7.0 mi SSE 21.9 mph 26.5 mph N/A Rain Light Rain
9:55 PM 64.4 °F 44.6 °F 49% 30.47 in 10.0 mi SSE 11.5 mph - N/A   Scattered Clouds
10:15 PM 66.2 °F 42.8 °F 43% 30.48 in 10.0 mi ESE 11.5 mph - N/A   Scattered Clouds
10:35 PM 64.4 °F 44.6 °F 49% 30.48 in 10.0 mi ESE 11.5 mph - N/A   Overcast
10:55 PM 64.4 °F 42.8 °F 45% 30.47 in 10.0 mi ESE 15.0 mph - N/A   Mostly Cloudy
11:15 PM 64.4 °F 42.8 °F 45% 30.46 in 10.0 mi SE 19.6 mph 24.2 mph N/A   Overcast
11:35 PM 62.6 °F 42.8 °F 48% 30.47 in 10.0 mi ESE 13.8 mph - N/A   Mostly Cloudy
11:55 PM 62.6 °F 42.8 °F 48% 30.48 in 10.0 mi ESE 13.8 mph - N/A   Clear